• Join FlightAware (Why Join?)
  • Login
  • US Flag 
04:52PM EST


 

Airport Tracker/Info


-or-


 

Live Flight TrackerFlight Track Log ✈ N207AH ✈ 11-Aug-2014 ✈ KMCB - KFWA

Flight Track Log - Related Links

Times and Time Zones

All times are in EDT time to prevent confusion due to time zone crossing. See the N207AH flight status page for this flight to view local times or setup timezone preferences in your user account.

Time Position Orientation Groundspeed Altitude Reporting Facility
EDT Latitude Longitude Course Direction KTS MPH feet Rate Location/Type
09:04AM 31.2522 -90.4631 12° North 255 293 3,200  Level Houston Center
09:05AM 31.3333 -90.4269 21° North 255 293 5,700 2,274 Climbing Houston Center
09:06AM 31.4072 -90.3917 22° Northeast 274 315 7,900 2,129 Climbing Houston Center
09:07AM 31.4825 -90.3536 23° Northeast 289 333 10,100 2,112 Climbing Houston Center
09:08AM 31.5603 -90.3172 22° Northeast 295 339 12,300 2,064 Climbing Houston Center
09:09AM 31.6418 -90.2312 12° North  Level FlightAware Approximate
09:09AM 31.6389 -90.2786 23° Northeast 302 348 14,400  Level Houston Center
09:10AM 31.7208 -90.2400 22° Northeast 312 359 16,400 2,081 Climbing Houston Center
09:11AM 31.8208 -90.1906 23° Northeast 324 373 18,700 1,839 Climbing Houston Center
09:12AM 31.9064 -90.1508 22° Northeast 324 373 20,200 1,500 Climbing Houston Center
09:13AM 31.9942 -90.1081 22° Northeast 336 387 21,800 1,355 Climbing Houston Center
09:14AM 32.0828 -90.0644 23° Northeast 343 395 23,000 726 Climbing Houston Center
09:15AM 32.1797 -90.0172 22° Northeast 371 427 23,300 912 Climbing Houston Center
09:16AM 32.2764 -89.9703 22° Northeast 377 434 24,900 1,440 Climbing Houston Center
09:17AM 32.3794 -89.9200 22° Northeast 369 425 26,300 1,258 Climbing Houston Center
09:18AM 32.4753 -89.8733 22° Northeast 370 426 27,500 1,065 Climbing Houston Center
09:19AM 32.5708 -89.8269 22° Northeast 370 426 28,500 1,065 Climbing Houston Center
09:20AM 32.6861 -89.7706 22° Northeast 371 427 29,700 1,258 Climbing Houston Center
09:21AM 32.7811 -89.7219 23° Northeast 371 427 31,100 1,296 Climbing Houston Center
09:22AM 32.8819 -89.6753 21° North 366 421 32,400 1,385 Climbing Houston Center
09:24AM 32.9928 -89.6156 24° Northeast 355 409 34,400 1,099 Climbing Memphis Center
09:25AM 33.0839 -89.5717 22° Northeast 355 409 35,000 290 Climbing Memphis Center
09:26AM 33.1997 -89.5144 22° Northeast 376 433 35,000  Level Memphis Center
09:27AM 33.2911 -89.4269 39° Northeast 418 481 35,000 480 Level Memphis Center
09:28AM 33.3819 -89.3389 39° Northeast 422 486 36,000 968 Climbing Memphis Center
09:29AM 33.4733 -89.2556 37° Northeast 421 484 37,000 968 Climbing Memphis Center
09:30AM 33.5625 -89.1733 38° Northeast 412 474 38,000 919 Climbing Memphis Center
09:31AM 33.6664 -89.0764 38° Northeast 402 463 38,900 823 Climbing Memphis Center
09:32AM 33.7533 -88.9958 38° Northeast 401 461 39,700 774 Climbing Memphis Center
09:33AM 33.8547 -88.9425 24° Northeast 390 449 40,500 629 Climbing Memphis Center
09:34AM 33.9544 -88.8947 22° Northeast 388 447 41,000 240 Climbing Memphis Center
09:35AM 34.0564 -88.8461 22° Northeast 390 449 41,000  Level Memphis Center
09:36AM 34.1681 -88.7919 22° Northeast 401 461 41,000  Level Memphis Center
09:37AM 34.2786 -88.7400 21° North 417 480 41,000  Level Memphis Center
09:38AM 34.3900 -88.6856 22° Northeast 425 489 41,000  Level Memphis Center
09:39AM 34.5272 -88.6203 21° North 433 498 41,000  Level Memphis Center
09:40AM 34.6314 -88.5697 22° Northeast 439 505 41,000  Level Memphis Center
09:41AM 34.7472 -88.5133 22° Northeast 444 511 41,000  Level Memphis Center
09:42AM 34.8772 -88.4511 21° North 447 514 41,000  Level Memphis Center
09:43AM 34.9936 -88.3925 22° Northeast 448 516 41,000  Level Memphis Center
09:44AM 35.1094 -88.3361 22° Northeast 448 516 41,000  Level Memphis Center
09:45AM 35.2258 -88.2783 22° Northeast 448 516 41,000  Level Memphis Center
09:47AM 35.3656 -88.2100 22° Northeast 448 516 41,000  Level Memphis Center
09:48AM 35.4822 -88.1514 22° Northeast 449 517 41,000  Level Memphis Center
09:49AM 35.5919 -88.0986 21° North 449 517 41,000  Level Memphis Center
09:50AM 35.7283 -88.0297 22° Northeast 449 517 41,000  Level Memphis Center
09:51AM 35.8456 -87.9700 22° Northeast 449 517 41,000  Level Memphis Center
09:52AM 35.9633 -87.9119 22° Northeast 449 517 41,000  Level Memphis Center
09:53AM 36.0811 -87.8514 23° Northeast 450 518 41,000  Level Memphis Center
09:54AM 36.2006 -87.7922 22° Northeast 450 518 41,000  Level Memphis Center
09:55AM 36.3194 -87.7328 22° Northeast 452 520 41,000  Level Memphis Center
09:56AM 36.4386 -87.6722 22° Northeast 452 520 41,000  Level Memphis Center
09:57AM 36.5586 -87.6108 22° Northeast 453 521 41,000  Level Memphis Center
09:58AM 36.6775 -87.5500 22° Northeast 454 522 41,000  Level Memphis Center
09:59AM 36.8156 -87.4786 22° Northeast 454 522 41,000  Level Memphis Center
10:00AM 36.9342 -87.4172 22° Northeast 454 522 41,000  Level Memphis Center
10:01AM 37.0531 -87.3561 22° Northeast 454 522 41,000  Level Memphis Center
10:02AM 37.1775 -87.3242 12° North 453 521 41,000  Level Memphis Center
10:03AM 37.2994 -87.2894 13° North 447 514 41,000  Level Memphis Center
10:04AM 37.4233 -87.2606 10° North 447 514 41,000  Level Memphis Center
10:05AM 37.5053 -87.2431 10° North 449 517 41,000  Level Indianapolis Center
10:06AM 37.6236 -87.1978 17° North 453 521 41,000  Level Indianapolis Center
10:08AM 37.8597 -87.0633 24° Northeast 462 532 41,000 -226 Level Indianapolis Center
10:09AM 37.9783 -86.9956 24° Northeast 464 534 40,300 -912 Descending Indianapolis Center
10:10AM 38.1256 -86.9086 25° Northeast 487 560 39,100 -1,056 Descending Indianapolis Center
10:11AM 38.2497 -86.8358 25° Northeast 494 568 38,100 -968 Descending Indianapolis Center
10:12AM 38.3761 -86.7639 24° Northeast 500 575 37,100 -919 Descending Indianapolis Center
10:13AM 38.5028 -86.6925 24° Northeast 501 577 36,200 -1,065 Descending Indianapolis Center
10:14AM 38.6317 -86.6172 25° Northeast 504 580 34,900 -1,500 Descending Indianapolis Center
10:15AM 38.7836 -86.5300 24° Northeast 503 579 33,100 -1,597 Descending Indianapolis Center
10:16AM 38.9086 -86.4564 25° Northeast 499 574 31,600 -1,452 Descending Indianapolis Center
10:17AM 39.0331 -86.3842 24° Northeast 496 571 30,100 -1,452 Descending Indianapolis Center
10:18AM 39.1617 -86.3086 24° Northeast 500 575 28,600 -1,500 Descending Indianapolis Center
10:19AM 39.2869 -86.2331 25° Northeast 503 579 27,000 -1,548 Descending Indianapolis Center
10:20AM 39.4083 -86.1608 25° Northeast 489 563 25,400 -1,452 Descending Indianapolis Center
10:21AM 39.5528 -86.0736 25° Northeast 486 559 24,000 -677 Descending Indianapolis Center
10:22AM 39.6683 -86.0036 25° Northeast 471 542 24,000  Level Indianapolis Center
10:23AM 39.7831 -85.9342 25° Northeast 468 539 24,000 -435 Level Indianapolis Center
10:24AM 39.8983 -85.8644 25° Northeast 464 534 23,100 -968 Descending Indianapolis Center
10:25AM 40.0381 -85.7794 25° Northeast 465 535 22,000 -629 Descending Indianapolis Center
10:26AM 40.1503 -85.7119 25° Northeast 452 520 21,800 -1,463 Descending Indianapolis Center
10:27AM 40.2614 -85.6419 26° Northeast 449 517 19,000 -2,927 Descending Indianapolis Center
10:28AM 40.3667 -85.5792 24° Northeast 428 493 15,800 -3,333 Descending Indianapolis Center
10:29AM 40.4681 -85.5142 26° Northeast 414 476 12,500 -2,462 Descending Chicago Center
10:30AM 40.5528 -85.4611 25° Northeast 337 388 11,000 -726 Descending Chicago Center
10:31AM 40.6217 -85.4175 26° Northeast 285 328 11,000 -192 Level Chicago Center
10:32AM 40.6953 -85.3717 25° Northeast 275 316 10,600 -816 Descending Chicago Center
10:33AM 40.7558 -85.3056 40° Northeast 301 346 9,300 -1,403 Descending Chicago Center
10:35AM 40.7067 -85.2414 135° Southeast 297 342 7,700 -1,597 Descending Chicago Center
10:36AM 40.6897 -85.3192 254° West 269 310 6,000 -1,403 Descending Chicago Center
10:37AM 40.7422 -85.3803 319° Northwest 260 299 4,800 -1,452 Descending Chicago Center
10:38AM 40.8081 -85.4100 341° North 242 278 3,000 -871 Descending Chicago Center
10:39AM 40.8469 -85.3561 46° Northeast 218 251 3,000 -96 Level Chicago Center
10:40AM 40.8889 -85.3044 43° Northeast 210 242 2,800 -576 Descending Chicago Center
10:41AM 40.9256 -85.2561 45° Northeast 200 230 1,800 -677 Descending Chicago Center
10:42AM 40.9625 -85.2069 45° Northeast 184 212 1,400 -387 Descending Chicago Center